DW7764 Weather Reports


Display with metric or nautical units.
time (UTC)temp
F
wind
direction
speed
MPH
gust
MPH
rain 1hr
in
rain 24hr
in
rain mn
in
humidity
%
barometer
mb
20260509000013 57 301 0.0 1.0 0.00 0.00 0.00 89 1020.3
20260508234511 57 300 0.0 1.0 0.00 0.00 0.00 89 1020.2
20260508233010 57 300 0.0 1.0 0.00 0.00 0.00 90 1020.3
20260508231508 56 128 0.0 1.0 0.00 0.00 0.00 91 1020.3
20260508230009 56 129 0.0 0.0 0.00 0.00 0.00 92 1020.5
20260508224505 55 128 0.0 0.0 0.00 0.00 0.00 92 1020.4
20260508223003 55 128 0.0 0.0 0.00 0.00 0.00 93 1020.4
20260508221502 55 128 0.0 2.0 0.00 0.00 0.00 93 1020.5
20260508220058 54 128 0.0 0.0 0.00 0.00 0.00 94 1020.6
20260508214558 53 128 0.0 0.0 0.00 0.00 0.00 94 1020.6
20260508213102 54 128 0.0 0.0 0.00 0.00 0.00 93 1020.6
20260508211557 54 128 0.0 0.0 0.00 0.00 0.00 92 1020.6
20260508210056 54 128 0.0 0.0 0.00 0.00 0.00 93 1020.5
20260508204556 54 128 0.0 0.0 0.00 0.00 0.00 93 1020.6
20260508203054 55 128 0.0 0.0 0.00 0.00 0.00 93 1020.4
20260508201600 55 128 0.0 0.0 0.00 0.00 0.00 92 1020.1
20260508200059 56 128 0.0 0.0 0.00 0.00 0.00 91 1020.0
20260508194550 56 128 0.0 0.0 0.00 0.00 0.00 89 1019.7
20260508193058 57 129 0.0 0.0 0.00 0.00 0.00 87 1019.7
20260508191549 59 128 0.0 0.0 0.00 0.00 0.00 84 1019.5
20260508190048 60 128 0.0 1.0 0.00 0.00 0.00 83 1019.4
20260508184559 61 129 0.0 2.0 0.00 0.00 0.00 82 1019.4
20260508183059 61 143 0.0 2.0 0.00 0.00 0.00 81 1019.2
20260508181545 61 139 0.0 4.0 0.00 0.00 0.00 81 1019.0
20260508180045 62 146 2.0 6.0 0.00 0.00 0.00 80 1019.0
20260508174559 62 103 2.0 7.0 0.00 0.00 0.00 79 1018.9
20260508173044 63 120 3.0 6.0 0.00 0.00 0.00 76 1018.7
20260508171544 64 115 3.0 7.0 0.00 0.00 0.00 74 1018.7
20260508170043 65 145 3.0 7.0 0.00 0.00 0.00 71 1018.6
20260508164547 65 128 3.0 8.0 0.00 0.00 0.00 69 1018.4
20260508163107 65 177 3.0 9.0 0.00 0.00 0.00 68 1018.4
20260508161541 65 125 3.0 8.0 0.00 0.00 0.00 68 1018.2
20260508160040 66 150 3.0 9.0 0.00 0.00 0.00 69 1018.6
20260508154543 65 79 3.0 10.0 0.00 0.00 0.00 71 1018.6
20260508153040 65 128 4.0 10.0 0.00 0.00 0.00 72 1018.6
20260508151542 66 120 3.0 11.0 0.00 0.00 0.00 74 1018.7
20260508150038 66 103 3.0 10.0 0.00 0.00 0.00 73 1018.5
20260508144539 67 134 5.0 10.0 0.00 0.00 0.00 69 1018.5
20260508143038 67 121 2.0 5.0 0.00 0.00 0.00 67 1018.4
20260508141537 66 160 2.0 9.0 0.00 0.00 0.00 67 1018.8
20260508140035 67 108 1.0 10.0 0.00 0.00 0.00 66 1018.9
20260508134538 68 166 2.0 6.0 0.00 0.00 0.00 65 1019.1
20260508133043 66 126 3.0 6.0 0.00 0.00 0.00 67 1019.2
20260508131536 67 107 2.0 7.0 0.00 0.00 0.00 64 1019.4
20260508130035 68 126 4.0 8.0 0.00 0.00 0.00 61 1019.2
20260508124532 67 108 2.0 9.0 0.00 0.00 0.00 61 1019.3
20260508123036 68 131 2.0 7.0 0.00 0.00 0.00 62 1019.4
20260508121531 67 127 5.0 8.0 0.00 0.00 0.00 65 1019.4
20260508120030 65 101 3.0 8.0 0.00 0.00 0.00 69 1019.4
20260508114530 65 123 3.0 8.0 0.00 0.00 0.00 67 1019.3
20260508113029 66 70 3.0 7.0 0.00 0.00 0.00 65 1019.3
20260508111528 66 193 4.0 7.0 0.00 0.00 0.00 68 1019.3
20260508110031 66 180 4.0 8.0 0.00 0.00 0.00 65 1019.2
20260508104527 65 143 1.0 6.0 0.00 0.00 0.00 66 1019.3
20260508103030 65 167 2.0 8.0 0.00 0.00 0.00 68 1019.5
20260508101534 67 138 2.0 7.0 0.00 0.00 0.00 66 1019.6
20260508100025 67 16 0.0 4.0 0.00 0.00 0.00 68 1019.6
20260508094520 65 121 0.0 5.0 0.00 0.00 0.00 71 1019.7
20260508093037 64 163 2.0 5.0 0.00 0.00 0.00 72 1019.7
20260508091522 64 108 1.0 5.0 0.00 0.00 0.00 73 1019.6
20260508090026 63 121 1.0 5.0 0.00 0.00 0.00 74 1019.5
20260508084513 63 102 2.0 5.0 0.00 0.00 0.00 71 1019.4
20260508083015 64 110 0.0 1.0 0.00 0.00 0.00 70 1019.2
20260508081507 63 132 0.0 3.0 0.00 0.00 0.00 75 1019.0
20260508080005 61 125 0.0 2.0 0.00 0.00 0.00 77 1018.9
20260508074504 60 133 1.0 3.0 0.00 0.00 0.00 77 1018.8
20260508073059 59 131 1.0 3.0 0.00 0.00 0.00 79 1018.8
20260508071553 57 140 0.0 0.0 0.00 0.00 0.00 84 1018.5
20260508070048 55 139 0.0 3.0 0.00 0.00 0.00 88 1018.4
20260508064545 52 131 0.0 1.0 0.00 0.00 0.00 92 1018.4
20260508063045 50 131 0.0 0.0 0.00 0.00 0.00 93 1018.5
20260508061544 49 131 0.0 0.0 0.00 0.00 0.00 93 1018.4
20260508060044 48 131 0.0 0.0 0.00 0.00 0.00 93 1018.3
20260508054603 47 131 0.0 0.0 0.00 0.00 0.00 93 1018.3
20260508053043 47 131 0.0 0.0 0.00 0.00 0.00 92 1018.0
20260508051542 47 131 0.0 0.0 0.00 0.00 0.00 94 1017.8
20260508050041 47 131 0.0 0.0 0.00 0.00 0.00 93 1017.7
20260508044554 47 131 0.0 0.0 0.00 0.00 0.00 93 1017.6
20260508043042 47 131 0.0 0.0 0.00 0.00 0.00 93 1017.6
20260508041549 47 131 0.0 0.0 0.00 0.00 0.00 93 1017.5
20260508040039 47 131 0.0 1.0 0.00 0.00 0.00 94 1017.4
20260508034540 47 131 0.0 1.0 0.00 0.00 0.00 94 1017.4
20260508033038 47 131 0.0 1.0 0.00 0.00 0.00 94 1017.4
20260508031543 47 131 0.0 0.0 0.00 0.00 0.00 95 1017.4
20260508030039 48 131 0.0 0.0 0.00 0.00 0.00 95 1017.5
20260508024529 48 131 0.0 0.0 0.00 0.00 0.00 94 1017.4
20260508023038 48 131 0.0 2.0 0.00 0.00 0.00 95 1017.5
20260508021527 49 131 0.0 0.0 0.00 0.00 0.00 94 1017.6
20260508020021 50 131 0.0 0.0 0.00 0.00 0.00 94 1017.7
20260508014520 50 131 0.0 0.0 0.00 0.00 0.00 94 1017.7
20260508013017 51 131 0.0 0.0 0.00 0.00 0.00 93 1017.9
20260508011516 51 131 0.0 0.0 0.00 0.00 0.00 93 1018.1
20260508010022 52 131 0.0 1.0 0.00 0.00 0.00 93 1018.2
20260508004520 52 131 0.0 0.0 0.00 0.00 0.00 94 1018.3
20260508003014 52 131 0.0 0.0 0.00 0.00 0.00 94 1018.3
20260508001511 52 131 0.0 0.0 0.00 0.00 0.00 94 1018.5